SB KEPS @ AMSAT $ORB14044.O Orbital Elements 14044.OSCAR
HR AMSAT ORBITAL ELEMENTS FOR OSCAR SATELLITES FROM WA5QGD FORT WORTH,TX February 13, 2014 BID: ORB14044.O TO ALL RADIO AMATEURS BT
Satellite: AO-07 Catalog number: 07530 Epoch time: 14044.90995178 Element set: 894 Inclination: 101.4601 deg RA of node: 030.8627 deg Eccentricity: 0.0011987 Arg of perigee: 174.0916 deg Mean anomaly: 214.3048 deg Mean motion: 12.53602193 rev/day Decay rate: -4.1e-07 rev/day^2 Epoch rev: 79607 Checksum: 297
Satellite: FO-29 Catalog number: 24278 Epoch time: 14044.13168288 Element set: 307 Inclination: 098.5224 deg RA of node: 075.0661 deg Eccentricity: 0.0349591 Arg of perigee: 259.4309 deg Mean anomaly: 132.6108 deg Mean motion: 13.53015328 rev/day Decay rate: -9.0e-08 rev/day^2 Epoch rev: 86389 Checksum: 320
Satellite: SO-33 Catalog number: 25509 Epoch time: 14044.67496049 Element set: 689 Inclination: 031.4321 deg RA of node: 140.1137 deg Eccentricity: 0.0350297 Arg of perigee: 112.4459 deg Mean anomaly: 035.8561 deg Mean motion: 14.29303652 rev/day Decay rate: 6.10e-06 rev/day^2 Epoch rev: 79946 Checksum: 306
Satellite: RS-22 Catalog number: 27939 Epoch time: 14044.61569946 Element set: 219 Inclination: 097.8000 deg RA of node: 224.9705 deg Eccentricity: 0.0013854 Arg of perigee: 137.6154 deg Mean anomaly: 222.6120 deg Mean motion: 14.64880336 rev/day Decay rate: 1.433e-05 rev/day^2 Epoch rev: 55463 Checksum: 307
Satellite: VO-52 Catalog number: 28650 Epoch time: 14044.18746628 Element set: 658 Inclination: 097.5612 deg RA of node: 055.4050 deg Eccentricity: 0.0025060 Arg of perigee: 203.3211 deg Mean anomaly: 156.6870 deg Mean motion: 14.84763218 rev/day Decay rate: 2.244e-05 rev/day^2 Epoch rev: 47482 Checksum: 299
Satellite: HO-68 Catalog number: 36122 Epoch time: 14044.75155655 Element set: 321 Inclination: 100.2694 deg RA of node: 100.3055 deg Eccentricity: 0.0007787 Arg of perigee: 159.8774 deg Mean anomaly: 200.2636 deg Mean motion: 13.16311618 rev/day Decay rate: -4.3e-07 rev/day^2 Epoch rev: 20019 Checksum: 273
Satellite: AO-73 Catalog number: 39444 Epoch time: 14044.46697688 Element set: 63 Inclination: 097.7891 deg RA of node: 119.3179 deg Eccentricity: 0.0062110 Arg of perigee: 285.0229 deg Mean anomaly: 074.4149 deg Mean motion: 14.77519457 rev/day Decay rate: 3.393e-05 rev/day^2 Epoch rev: 1119 Checksum: 338
/EX SB KEPS @ AMSAT $ORB14044.D Orbital Elements 14044.MICROS
HR AMSAT ORBITAL ELEMENTS FOR THE MICROSATS FROM WA5QGD FORT WORTH,TX February 13, 2014 BID: ORB14044.D TO ALL RADIO AMATEURS BT
Satellite: UO-11 Catalog number: 14781 Epoch time: 14043.75572161 Element set: 414 Inclination: 097.8686 deg RA of node: 106.2251 deg Eccentricity: 0.0008213 Arg of perigee: 217.8184 deg Mean anomaly: 142.2453 deg Mean motion: 14.81298108 rev/day Decay rate: 1.311e-05 rev/day^2 Epoch rev: 60954 Checksum: 286
Satellite: AO-16 Catalog number: 20439 Epoch time: 14043.68826728 Element set: 954 Inclination: 098.4978 deg RA of node: 343.4407 deg Eccentricity: 0.0011442 Arg of perigee: 162.1865 deg Mean anomaly: 266.8429 deg Mean motion: 14.32281212 rev/day Decay rate: 2.74e-06 rev/day^2 Epoch rev: 25666 Checksum: 324
Satellite: LO-19 Catalog number: 20442 Epoch time: 14043.88800684 Element set: 892 Inclination: 098.4682 deg RA of node: 344.6693 deg Eccentricity: 0.0012600 Arg of perigee: 152.1541 deg Mean anomaly: 208.0320 deg Mean motion: 14.32486886 rev/day Decay rate: 2.64e-06 rev/day^2 Epoch rev: 25688 Checksum: 311
Satellite: AO-27 Catalog number: 22825 Epoch time: 14044.80608006 Element set: 596 Inclination: 098.6496 deg RA of node: 351.6384 deg Eccentricity: 0.0007330 Arg of perigee: 302.9592 deg Mean anomaly: 108.6930 deg Mean motion: 14.29655567 rev/day Decay rate: 1.82e-06 rev/day^2 Epoch rev: 6315 Checksum: 317
Satellite: IO-26 Catalog number: 22826 Epoch time: 14043.83741398 Element set: 352 Inclination: 098.6436 deg RA of node: 350.9168 deg Eccentricity: 0.0007850 Arg of perigee: 297.6013 deg Mean anomaly: 062.4371 deg Mean motion: 14.29949007 rev/day Decay rate: 2.70e-06 rev/day^2 Epoch rev: 6314 Checksum: 310
Satellite: GO-32 Catalog number: 25397 Epoch time: 14044.52625654 Element set: 276 Inclination: 098.4530 deg RA of node: 007.2368 deg Eccentricity: 0.0000664 Arg of perigee: 024.8168 deg Mean anomaly: 089.2305 deg Mean motion: 14.23402750 rev/day Decay rate: 1.24e-06 rev/day^2 Epoch rev: 81027 Checksum: 284
Satellite: NO-44 Catalog number: 26931 Epoch time: 14043.83745836 Element set: 534 Inclination: 067.0541 deg RA of node: 359.0959 deg Eccentricity: 0.0005595 Arg of perigee: 270.2766 deg Mean anomaly: 089.7694 deg Mean motion: 14.30039752 rev/day Decay rate: 2.79e-06 rev/day^2 Epoch rev: 64582 Checksum: 344
Satellite: SO-50 Catalog number: 27607 Epoch time: 14044.86286939 Element set: 303 Inclination: 064.5554 deg RA of node: 248.1866 deg Eccentricity: 0.0034743 Arg of perigee: 056.7974 deg Mean anomaly: 039.1103 deg Mean motion: 14.73407858 rev/day Decay rate: 8.98e-06 rev/day^2 Epoch rev: 59931 Checksum: 346
Satellite: CO-55 Catalog number: 27844 Epoch time: 14044.60876847 Element set: 855 Inclination: 098.7004 deg RA of node: 055.1607 deg Eccentricity: 0.0008633 Arg of perigee: 270.7185 deg Mean anomaly: 208.7421 deg Mean motion: 14.21387747 rev/day Decay rate: 3.53e-06 rev/day^2 Epoch rev: 55102 Checksum: 316
Satellite: CO-57 Catalog number: 27848 Epoch time: 14044.52270693 Element set: 796 Inclination: 098.7096 deg RA of node: 054.7190 deg Eccentricity: 0.0008525 Arg of perigee: 278.0980 deg Mean anomaly: 232.7560 deg Mean motion: 14.21090786 rev/day Decay rate: 3.11e-06 rev/day^2 Epoch rev: 55093 Checksum: 329
Satellite: AO-51 Catalog number: 28375 Epoch time: 14044.85749911 Element set: 771 Inclination: 098.2371 deg RA of node: 356.0679 deg Eccentricity: 0.0083142 Arg of perigee: 006.1423 deg Mean anomaly: 049.5233 deg Mean motion: 14.41274713 rev/day Decay rate: 4.23e-06 rev/day^2 Epoch rev: 50614 Checksum: 298
Satellite: CP3 Catalog number: 31129 Epoch time: 14044.55406675 Element set: 673 Inclination: 097.9213 deg RA of node: 028.9188 deg Eccentricity: 0.0099998 Arg of perigee: 036.8268 deg Mean anomaly: 079.8904 deg Mean motion: 14.54225859 rev/day Decay rate: 2.173e-05 rev/day^2 Epoch rev: 36206 Checksum: 350
Satellite: CO-65 Catalog number: 32785 Epoch time: 14044.46772534 Element set: 867 Inclination: 097.7170 deg RA of node: 099.7619 deg Eccentricity: 0.0013096 Arg of perigee: 231.6472 deg Mean anomaly: 253.3595 deg Mean motion: 14.84687074 rev/day Decay rate: 2.121e-05 rev/day^2 Epoch rev: 31366 Checksum: 339
Satellite: PRISM Catalog number: 33493 Epoch time: 14044.88703058 Element set: 640 Inclination: 098.2384 deg RA of node: 215.4741 deg Eccentricity: 0.0018490 Arg of perigee: 124.8085 deg Mean anomaly: 235.4866 deg Mean motion: 14.87930490 rev/day Decay rate: 7.450e-05 rev/day^2 Epoch rev: 27383 Checksum: 318
Satellite: SOHLA-1 Catalog number: 33496 Epoch time: 14044.42889021 Element set: 273 Inclination: 098.1541 deg RA of node: 165.1941 deg Eccentricity: 0.0005250 Arg of perigee: 273.8524 deg Mean anomaly: 127.9980 deg Mean motion: 14.70583828 rev/day Decay rate: 7.34e-06 rev/day^2 Epoch rev: 27132 Checksum: 304
Satellite: TISAT-1 Catalog number: 36799 Epoch time: 14044.79573003 Element set: 905 Inclination: 098.0200 deg RA of node: 135.9468 deg Eccentricity: 0.0014479 Arg of perigee: 008.0325 deg Mean anomaly: 352.1095 deg Mean motion: 14.84626249 rev/day Decay rate: 4.831e-05 rev/day^2 Epoch rev: 19440 Checksum: 308
Satellite: STUDSAT Catalog number: 36801 Epoch time: 14043.45279159 Element set: 768 Inclination: 098.0360 deg RA of node: 140.4709 deg Eccentricity: 0.0010015 Arg of perigee: 344.6496 deg Mean anomaly: 145.7768 deg Mean motion: 14.92637606 rev/day Decay rate: 1.3933e-04 rev/day^2 Epoch rev: 19449 Checksum: 322
Satellite: ALMASAT-1 Catalog number: 38078 Epoch time: 14044.86607483 Element set: 930 Inclination: 069.4753 deg RA of node: 354.4611 deg Eccentricity: 0.0639725 Arg of perigee: 194.9458 deg Mean anomaly: 238.3166 deg Mean motion: 14.39071553 rev/day Decay rate: 3.0378e-04 rev/day^2 Epoch rev: 10382 Checksum: 334
Satellite: XATCOBEO Catalog number: 38082 Epoch time: 14044.88338058 Element set: 942 Inclination: 069.4586 deg RA of node: 290.5608 deg Eccentricity: 0.0400432 Arg of perigee: 160.4227 deg Mean anomaly: 329.3030 deg Mean motion: 15.00392213 rev/day Decay rate: 1.37521e-03 rev/day^2 Epoch rev: 10556 Checksum: 283
Satellite: CUBEBUG-1 Catalog number: 39153 Epoch time: 14044.76166612 Element set: 852 Inclination: 098.0515 deg RA of node: 125.3117 deg Eccentricity: 0.0018630 Arg of perigee: 031.5241 deg Mean anomaly: 328.7042 deg Mean motion: 14.77144261 rev/day Decay rate: 2.685e-05 rev/day^2 Epoch rev: 4333 Checksum: 273
Satellite: ESTCUBE-1 Catalog number: 39161 Epoch time: 14044.86757128 Element set: 822 Inclination: 098.1060 deg RA of node: 126.6650 deg Eccentricity: 0.0011343 Arg of perigee: 070.0240 deg Mean anomaly: 290.2165 deg Mean motion: 14.69549281 rev/day Decay rate: 2.146e-05 rev/day^2 Epoch rev: 4148 Checksum: 278
/EX SB KEPS @ AMSAT $ORB14044.W Orbital Elements 14044.WEATHER
HR AMSAT ORBITAL ELEMENTS FOR WEATHER SATELLITES FROM WA5QGD FORT WORTH,TX February 13, 2014 BID: ORB14044.W TO ALL RADIO AMATEURS BT
Satellite: NOAA-10 Catalog number: 16969 Epoch time: 14044.20304352 Element set: 670 Inclination: 098.5242 deg RA of node: 071.5099 deg Eccentricity: 0.0011267 Arg of perigee: 256.3053 deg Mean anomaly: 145.7869 deg Mean motion: 14.27715638 rev/day Decay rate: 1.12e-06 rev/day^2 Epoch rev: 42633 Checksum: 295
Satellite: NOAA-11 Catalog number: 19531 Epoch time: 14044.20458053 Element set: 693 Inclination: 098.6895 deg RA of node: 126.3441 deg Eccentricity: 0.0010126 Arg of perigee: 293.5279 deg Mean anomaly: 066.4830 deg Mean motion: 14.15056125 rev/day Decay rate: 1.05e-06 rev/day^2 Epoch rev: 31020 Checksum: 271
